Cloud_Cover
0 0 0 0 0 0 0 0 0 0 0 0 0 0 0 0 0 0 0 0 0 0 0 0 0 0 0 0 20 24 36 48 64 76 80 64 56 56 64 88 80 76 68 68 76 88 92 76 68 68 80 92 92 88 76 76 80 92 92 92 92 92 88 48 44 36 32 44 36
0 0 0 0 0 0 0 0 0 0 0 0 0 0 0 0 0 0 0 0 0 0 0 0 0 0 0 0 8 20 24 36 76 92 88 68 64 68 76 80 76 80 92 92 92 88 88 88 76 80 92 92 92 92 88 80 80 80 88 92 92 92 88 64 64 64 56 56 36
0 0 0 0 0 0 0 0 0 0 0 0 0 0 0 0 0 0 0 0 0 0 0 0 0 0 0 0 0 20 44 68 88 92 92 80 76 68 68 80 88 92 92 92 76 76 76 76 88 92 92 92 92 92 92 92 92 88 80 76 92 92 88 68 76 76 76 68 56
0 0 0 0 0 0 0 0 0 0 0 0 0 0 0 0 0 0 0 0 0 0 0 0 0 0 0 0 12 36 64 92 92 92 88 92 92 92 92 92 92 92 92 92 92 92 92 92 92 92 92 92 92 92 92 92 92 92 92 80 92 92 92 92 80 76 80 76 68
0 0 0 0 0 0 0 0 0 0 0 0 0 0 0 0 0 0 0 0 0 0 0 0 0 8 8 12 20 56 92 92 92 88 76 76 88 88 76 80 76 88 92 92 92 92 92 92 92 92 92 92 92 92 92 92 92 88 88 92 92 92 92 92 88 76 64 56 64
0 0 0 0 0 0 0 0 0 0 0 0 0 0 0 0 0 0 0 0 0 0 0 12 20 20 12 12 20 64 92 92 88 80 76 68 88 88 76 68 64 64 64 76 88 92 92 92 92 92 92 92 92 92 92 92 92 92 80 76 92 92 92 92 92 92 88 64 76
0 0 0 0 0 0 0 0 0 0 0 0 0 0 0 0 0 0 0 0 0 8 20 24 20 20 20 24 44 68 92 92 88 80 76 68 68 80 92 76 76 80 88 88 92 92 92 92 92 92 92 92 92 92 92 92 92 92 92 80 92 92 92 92 80 80 80 80 88
0 0 0 0 0 0 0 0 0 0 0 0 0 0 0 0 0 0 8 20 32 32 32 32 24 32 48 68 80 88 92 92 92 92 88 80 80 88 92 92 92 92 92 92 92 92 92 92 92 92 92 92 92 92 92 92 92 92 92 92 92 92 92 80 80 80 88 92 92
0 0 0 0 0 0 0 0 0 0 0 0 0 0 0 8 24 36 44 48 44 44 36 32 48 76 92 92 92 92 92 92 92 88 80 80 80 88 92 92 92 92 92 92 92 92 92 92 92 92 92 92 92 92 92 92 92 92 92 92 92 92 92 88 92 92 92 92 92
0 0 0 0 0 0 0 12 12 12 12 20 32 32 32 36 64 64 56 48 44 36 24 24 80 92 92 88 92 88 80 76 76 88 92 92 92 92 92 88 92 92 92 92 92 92 92 92 92 92 92 92 92 88 88 92 92 92 92 92 92 92 92 88 92 92 92 88 88
0 0 0 0 0 0 20 76 88 80 76 68 76 76 76 76 56 44 36 24 20 12 20 36 80 92 92 88 92 88 80 80 80 88 92 76 80 80 80 80 80 88 92 92 92 92 92 92 92 92 92 92 92 92 92 88 92 92 92 92 92 92 92 92 92 92 92 92 92
0 0 0 0 8 12 36 80 76 76 68 68 64 56 48 36 24 12 8 0 8 24 48 92 88 88 80 48 76 92 92 88 88 92 92 92 80 88 92 92 92 92 92 92 92 92 92 92 92 92 92 92 92 92 92 88 92 92 92 92 92 92 92 92 92 92 92 92 92
0 0 0 0 12 24 32 44 48 48 44 32 32 24 12 8 0 0 0 20 48 76 92 92 76 68 64 48 76 88 88 68 80 88 92 92 92 92 92 92 92 92 88 92 92 92 92 92 92 92 92 92 92 92 92 92 92 92 92 92 92 92 92 92 92 92 92 92 92
0 0 0 0 0 8 12 20 24 20 12 0 0 0 0 0 0 12 36 76 92 92 92 76 80 68 64 68 88 92 92 92 68 76 92 92 92 92 92 92 92 92 92 92 88 88 88 92 92 92 92 92 92 92 92 92 92 92 92 92 92 92 92 92 92 92 92 92 88
0 0 0 0 0 8 8 8 8 8 8 0 0 0 0 0 0 36 88 92 92 80 64 36 48 76 92 92 92 92 92 92 80 88 92 92 92 92 92 92 88 88 92 92 92 88 76 80 88 92 92 92 92 92 92 92 92 92 92 92 92 92 92 92 92 92 88 88 88
0 0 8 8 8 8 8 8 8 8 8 0 0 0 0 0 0 48 92 92 92 68 44 56 68 80 92 92 92 92 92 92 92 92 88 80 88 92 92 92 92 92 92 92 92 88 88 80 80 88 92 92 92 92 92 92 92 92 92 92 92 92 88 92 88 88 88 80 88
8 8 8 8 8 8 8 12 8 8 8 8 0 0 0 0 20 56 92 92 88 76 76 88 92 92 92 92 92 92 92 92 92 88 80 80 88 92 92 92 92 92 92 92 92 92 92 92 88 92 92 92 92 92 92 92 92 92 92 92 92 92 92 88 76 80 88 88 88
20 20 8 8 8 12 8 8 8 8 8 8 8 0 0 0 56 80 88 92 88 92 92 92 92 92 92 92 92 92 92 80 80 80 88 92 92 92 92 80 76 76 76 76 88 92 88 80 76 80 80 88 76 76 80 88 80 80 80 80 88 88 88 68 56 64 76 80 80
32 24 20 12 12 8 8 8 8 20 24 20 8 8 12 44 80 92 92 92 92 92 92 92 92 92 92 92 88 92 88 80 80 88 92 92 88 80 68 64 56 56 56 48 56 68 68 68 68 64 64 68 56 56 64 64 64 64 64 64 68 68 64 48 44 56 68 76 76
32 32 32 32 24 20 12 20 24 36 36 20 12 24 48 80 92 92 92 92 92 92 92 92 92 92 92 92 88 88 92 92 92 92 92 92 68 68 80 76 68 76 80 76 64 56 56 56 56 64 64 64 64 68 64 48 48 48 56 64 56 48 48 64 56 56 64 68 68
44 48 48 48 44 44 36 44 36 32 24 20 32 48 68 88 92 92 88 80 76 80 88 92 92 92 92 92 92 92 92 92 92 92 92 92 80 88 92 92 88 92 92 92 88 80 76 64 56 56 56 64 76 76 76 64 48 44 48 76 80 80 76 68 56 56 56 56 64
56 64 56 48 36 32 24 24 20 8 8 8 20 32 36 44 48 48 44 36 48 68 92 92 92 92 88 88 68 64 68 64 48 36 24 24 76 88 80 92 92 92 92 92 92 92 92 88 80 68 64 64 64 64 64 76 64 48 44 48 80 88 76 48 48 56 64 56 76
64 48 36 20 12 8 0 0 0 0 0 0 0 0 8 8 8 12 20 44 56 76 88 80 76 68 64 64 36 24 20 12 8 0 0 0 24 48 76 92 92 92 92 92 92 88 80 76 88 80 64 56 48 48 48 64 56 48 36 32 48 56 48 32 44 48 56 48 48
24 12 8 0 0 0 0 0 0 0 0 0 0 0 0 0 0 0 12 32 64 76 68 64 56 48 44 32 20 8 0 0 0 0 0 0 0 8 20 24 80 92 92 92 92 80 64 48 64 64 64 48 44 36 32 44 36 32 32 24 24 32 32 24 32 44 48 44 32
0 0 0 0 0 0 0 0 0 0 0 0 0 0 0 0 0 0 0 0 32 36 36 36 32 32 24 20 8 0 0 0 0 0 0 0 0 0 0 0 44 76 92 92 76 56 48 48 48 64 56 36 32 32 32 36 32 24 24 20 20 24 24 20 32 36 36 24 12
0 0 0 0 0 0 0 0 0 0 0 0 0 0 0 0 0 0 0 0 0 0 8 8 8 0 0 0 0 0 0 0 0 0 0 0 0 0 0 0 0 48 88 68 44 32 32 36 44 44 36 32 24 32 36 36 32 20 20 12 20 20 20 24 32 32 20 8 0
0 0 0 0 0 0 0 0 0 0 0 0 0 0 0 0 0 0 0 0 0 0 0 0 0 0 0 0 0 0 0 0 0 0 0 0 0 0 0 0 0 32 56 36 20 12 12 24 32 24 24 20 32 36 36 36 24 20 12 24 20 20 20 24 24 20 8 0 0
0 0 0 0 0 0 0 0 0 0 0 0 0 0 0 0 0 0 0 0 0 0 0 0 0 0 0 0 0 0 0 0 0 0 0 0 0 0 0 0 0 0 8 32 12 8 12 24 20 12 12 12 36 36 32 24 20 20 24 24 20 24 32 32 32 20 12 0 0
0 0 0 0 0 0 0 0 0 0 0 0 0 0 0 0 0 0 0 0 0 0 0 0 0 0 0 0 0 0 0 0 0 0 0 0 0 0 0 0 0 0 0 0 0 12 20 20 12 8 12 36 44 36 24 24 24 24 24 20 24 36 36 36 32 24 20 12 8
0 0 0 0 0 0 0 0 0 0 0 0 0 0 0 0 0 0 0 0 0 0 0 0 0 0 0 0 0 0 0 0 0 0 0 0 0 0 0 0 0 0 0 0 0 8 12 12 8 8 20 32 32 32 24 24 24 24 24 20 32 36 36 32 32 24 20 12 20
0 0 0 0 0 0 0 0 0 0 0 0 0 0 0 0 0 0 0 0 0 0 0 0 0 0 0 0 0 0 0 0 0 0 0 0 0 0 0 0 0 12 24 0 0 8 12 12 8 12 20 24 32 32 24 32 24 24 24 24 36 44 36 32 32 24 32 44 44
0 0 0 0 0 0 0 0 0 0 0 0 0 0 0 0 0 0 0 0 0 0 0 0 0 0 0 0 0 0 0 0 0 0 0 0 0 0 0 0 0 12 20 0 0 8 12 8 8 12 32 64 80 76 64 32 32 24 32 48 48 48 44 36 56 64 68 64 56
0 0 0 0 0 0 0 0 0 0 0 0 0 0 0 0 0 0 0 0 0 0 0 0 0 0 0 0 0 0 0 0 0 0 8 0 0 0 0 0 0 0 0 0 0 0 0 0 0 8 8 12 36 48 44 44 32 48 64 68 64 48 36 44 56 64 56 56 44
0 0 0 0 0 0 0 0 0 0 0 0 0 0 0 0 0 0 0 0 0 0 0 0 0 0 0 0 0 0 0 0 0 0 0 0 0 0 0 0 0 0 0 0 0 0 0 0 0 0 0 0 0 12 32 32 24 36 56 68 64 44 20 0 24 32 36 36 12
0 0 0 0 0 0 0 0 0 0 0 0 0 0 0 0 0 0 0 0 0 0 0 0 0 0 0 0 0 0 0 0 0 0 0 0 0 0 0 0 0 0 0 0 0 0 0 0 0 0 8 8 0 0 0 0 0 0 8 24 32 24 12 0 0 0 0 0 0
0 0 0 0 0 0 0 0 0 0 0 0 0 0 0 0 0 0 0 0 0 0 0 0 0 0 0 0 0 0 0 0 0 0 0 0 0 0 0 0 0 0 0 0 0 0 0 0 0 0 0 0 0 0 0 0 0 0 0 0 0 0 8 0 0 0 0 0 0
0 0 0 0 0 0 0 0 0 0 0 0 0 0 0 0 0 0 0 0 0 0 0 0 0 0 0 0 0 0 0 0 0 0 0 0 0 0 0 0 0 0 0 0 0 0 0 0 0 0 0 0 0 0 0 0 0 0 0 0 0 0 0 0 0 0 0 0 0
0 0 0 0 0 0 0 0 0 0 0 0 0 0 0 0 0 0 0 0 0 0 0 0 0 0 0 0 0 0 0 0 0 0 0 0 0 0 0 0 0 0 0 0 0 0 0 0 0 0 0 0 0 0 0 0 0 0 0 0 0 0 0 0 0 0 0 0 0
0 0 0 0 0 0 0 0 0 0 0 0 0 0 0 0 0 0 0 0 0 0 0 0 0 0 0 0 0 0 0 0 0 0 0 0 0 0 0 0 0 0 0 0 0 0 0 0 0 0 0 0 0 0 0 0 0 0 0 0 0 0 0 0 0 0 0 0 0
0 0 0 0 0 0 0 0 0 0 0 0 0 0 0 0 0 0 0 0 0 0 0 0 0 0 0 0 0 0 0 0 0 0 0 0 0 0 0 0 0 0 0 0 0 0 0 0 0 0 0 0 0 0 0 0 0 0 0 0 0 0 0 0 0 0 0 0 0
0 0 0 0 0 0 0 0 0 0 0 0 0 0 0 0 0 0 0 0 0 0 0 0 0 0 0 0 0 0 0 0 0 0 0 0 0 0 0 0 0 0 0 0 0 0 0 0 0 0 0 0 0 0 0 0 0 0 0 0 0 0 0 0 0 0 0 0 0